,,Stat6,,Stat2,,Stat8,,Stat9,,Stat10,,Wind1,,Wind1,
time,status,PA1M_AVG,status,PR1M_SUM,status,RH1M_AVG,status,SR1M_AVG,status,TA1M_AVG,status,W1dAve1m,status,W1sAve1m,
2004-04-23, 00:00:01,VALID,916.533,VALID,0,VALID,100,VALID,-0.0339617,VALID,19.8423,VALID,132,VALID,1.10103,
2004-04-23, 00:01:00,VALID,916.534,VALID,0,VALID,100,VALID,0,VALID,19.8453,VALID,131,VALID,1.27586,
2004-04-23, 00:02:00,VALID,916.554,VALID,0,VALID,100,VALID,-0.0339617,VALID,19.8421,VALID,132,VALID,1.1717,
2004-04-23, 00:03:00,VALID,916.563,VALID,0,VALID,100,VALID,0.101885,VALID,19.8376,VALID,132,VALID,0.800305,
2004-04-23, 00:04:01,VALID,916.586,VALID,0,VALID,100,VALID,0.0509425,VALID,19.8371,VALID,141,VALID,0.684152,
2004-04-23, 00:05:00,VALID,916.606,VALID,0,VALID,100,VALID,0.101885,VALID,19.8371,VALID,138,VALID,0.637058,
2004-04-23, 00:06:00,VALID,916.627,VALID,0.2,VALID,100,VALID,0.101885,VALID,19.8438,VALID,119,VALID,0.965588,
2004-04-23, 00:07:00,VALID,916.64,VALID,0,VALID,100,VALID,0.101885,VALID,19.8274,VALID,109,VALID,0.932292,
2004-04-23, 00:08:00,VALID,916.657,VALID,0,VALID,100,VALID,0.0849042,VALID,19.818,VALID,95,VALID,1.08098,
2004-04-23, 00:09:01,VALID,916.677,VALID,0,VALID,100,VALID,0.0509425,VALID,19.8145,VALID,98,VALID,0.92024,
2004-04-23, 00:10:01,VALID,916.693,VALID,0,VALID,100,VALID,0.101885,VALID,19.8177,VALID,114,VALID,1.22514,
2004-04-23, 00:11:00,VALID,916.715,VALID,0,VALID,100,VALID,0.0849042,VALID,19.8078,VALID,94,VALID,1.01414,
2004-04-23, 00:12:00,VALID,916.723,VALID,0,VALID,100,VALID,0.0679233,VALID,19.8239,VALID,83,VALID,0.962426,
2004-04-23, 00:13:01,VALID,916.727,VALID,0,VALID,100,VALID,0.0849042,VALID,19.8306,VALID,67,VALID,0.881696,
2004-04-23, 00:14:01,VALID,916.727,VALID,0,VALID,100,VALID,0.101885,VALID,19.8562,VALID,63,VALID,0.88058,
2004-04-23, 00:15:00,VALID,916.728,VALID,0.2,VALID,100,VALID,0.0849042,VALID,19.85,VALID,82,VALID,1.0744,
2004-04-23, 00:16:01,VALID,916.741,VALID,0,VALID,100,VALID,0.0509425,VALID,19.85,VALID,90,VALID,1.19531,
2004-04-23, 00:17:00,VALID,916.73,VALID,0,VALID,100,VALID,0.0509425,VALID,19.8505,VALID,81,VALID,0.749822,
2004-04-23, 00:18:01,VALID,916.728,VALID,0,VALID,100,VALID,0.0509425,VALID,19.8274,VALID,111,VALID,1.67578,
2004-04-23, 00:19:00,VALID,916.701,VALID,0,VALID,100,VALID,0.0679233,VALID,19.8274,VALID,106,VALID,1.05771,
2004-04-23, 00:20:01,VALID,916.698,VALID,0,VALID,100,VALID,0.101885,VALID,19.8339,VALID,123,VALID,1.29379,
2004-04-23, 00:21:00,VALID,916.702,VALID,0,VALID,100,VALID,0.0679233,VALID,19.8401,VALID,111,VALID,1.05602,
2004-04-23, 00:22:01,VALID,916.709,VALID,0,VALID,100,VALID,0.101885,VALID,19.8473,VALID,109,VALID,1.1343,
2004-04-23, 00:23:00,VALID,916.717,VALID,0,VALID,100,VALID,0.0849042,VALID,19.8371,VALID,116,VALID,1.02507,
2004-04-23, 00:24:00,VALID,916.732,VALID,0,VALID,100,VALID,0.101885,VALID,19.8433,VALID,98,VALID,0.736852,
2004-04-23, 00:25:01,VALID,916.731,VALID,0,VALID,100,VALID,0.0169808,VALID,19.8632,VALID,87,VALID,0.783203,
2004-04-23, 00:26:00,VALID,916.746,VALID,0,VALID,100,VALID,0.0679233,VALID,19.8699,VALID,92,VALID,0.931362,
2004-04-23, 00:27:01,VALID,916.747,VALID,0,VALID,100,VALID,0.0509425,VALID,19.8664,VALID,68,VALID,1.10976,
2004-04-23, 00:28:01,VALID,916.74,VALID,0,VALID,100,VALID,0.0679233,VALID,19.886,VALID,71,VALID,1.0666,
2004-04-23, 00:29:00,VALID,916.735,VALID,0,VALID,100,VALID,0.0339617,VALID,19.8788,VALID,55,VALID,1.19306,
2004-04-23, 00:30:00,VALID,916.711,VALID,0,VALID,100,VALID,0.0679233,VALID,19.8823,VALID,72,VALID,1.18037,
2004-04-23, 00:31:00,VALID,916.701,VALID,0,VALID,100,VALID,0.0339617,VALID,19.8721,VALID,77,VALID,0.976953,
2004-04-23, 00:32:01,VALID,916.679,VALID,0,VALID,100,VALID,0.0509425,VALID,19.8734,VALID,101,VALID,0.87827,
2004-04-23, 00:33:00,VALID,916.662,VALID,0,VALID,100,VALID,-0.0339617,VALID,19.8684,VALID,117,VALID,1.0089,
2004-04-23, 00:34:01,VALID,916.642,VALID,0,VALID,100,VALID,-0.0509425,VALID,19.855,VALID,113,VALID,0.910547,
2004-04-23, 00:35:00,VALID,916.622,VALID,0,VALID,100,VALID,0,VALID,19.8585,VALID,114,VALID,0.571987,
2004-04-23, 00:36:01,VALID,916.61,VALID,0,VALID,100,VALID,0,VALID,19.8518,VALID,118,VALID,0.894804,
2004-04-23, 00:37:01,VALID,916.581,VALID,0,VALID,100,VALID,-0.0339617,VALID,19.8421,VALID,142,VALID,0.898801,
2004-04-23, 00:38:00,VALID,916.58,VALID,0,VALID,100,VALID,-0.0509425,VALID,19.8582,VALID,143,VALID,0.827734,
2004-04-23, 00:39:01,VALID,916.556,VALID,0.2,VALID,100,VALID,0,VALID,19.8488,VALID,144,VALID,0.957889,
2004-04-23, 00:40:00,VALID,916.538,VALID,0,VALID,100,VALID,0,VALID,19.8421,VALID,150,VALID,0.787348,
2004-04-23, 00:41:00,VALID,916.522,VALID,0,VALID,100,VALID,-0.0509425,VALID,19.8388,VALID,152,VALID,0.759233,
2004-04-23, 00:42:00,VALID,916.5,VALID,0,VALID,100,VALID,-0.0169808,VALID,19.8458,VALID,152,VALID,0.386541,
2004-04-23, 00:43:00,VALID,916.484,VALID,0,VALID,100,VALID,-0.0169808,VALID,19.849,VALID,152,VALID,0.516927,
2004-04-23, 00:44:01,VALID,916.481,VALID,0,VALID,100,VALID,-0.0339617,VALID,19.8386,VALID,151,VALID,0.591211,
2004-04-23, 00:45:00,VALID,916.468,VALID,0,VALID,100,VALID,-0.0339617,VALID,19.8652,VALID,141,VALID,0.378997,
2004-04-23, 00:46:01,VALID,916.469,VALID,0,VALID,100,VALID,-0.0169808,VALID,19.8677,VALID,131,VALID,0.540923,
2004-04-23, 00:47:00,VALID,916.46,VALID,0,VALID,100,VALID,-0.0339617,VALID,19.897,VALID,131,VALID,0.501065,
2004-04-23, 00:48:01,VALID,916.449,VALID,0,VALID,100,VALID,-0.0169808,VALID,19.8905,VALID,130,VALID,0.50293,
2004-04-23, 00:49:01,VALID,916.434,VALID,0,VALID,100,VALID,-0.0679233,VALID,19.8716,VALID,129,VALID,0.456731,
2004-04-23, 00:50:00,VALID,916.412,VALID,0,VALID,100,VALID,-0.0849042,VALID,19.8495,VALID,126,VALID,0.675223,
2004-04-23, 00:51:01,VALID,916.41,VALID,0,VALID,100,VALID,-0.0849042,VALID,19.8331,VALID,120,VALID,0.486852,
2004-04-23, 00:52:01,VALID,916.387,VALID,0,VALID,100,VALID,-0.0679233,VALID,19.8234,VALID,120,VALID,0.243096,
2004-04-23, 00:53:01,VALID,916.382,VALID,0,VALID,100,VALID,-0.0849042,VALID,19.8431,VALID,120,VALID,0.0637429,
2004-04-23, 00:54:01,VALID,916.393,VALID,0,VALID,100,VALID,-0.0849042,VALID,19.8687,VALID,120,VALID,0.0431463,
2004-04-23, 00:55:01,VALID,916.379,VALID,0,VALID,100,VALID,-0.0339617,VALID,19.9,VALID,120,VALID,0.139096,
2004-04-23, 00:56:01,VALID,916.383,VALID,0,VALID,100,VALID,-0.0339617,VALID,19.939,VALID,120,VALID,0.124628,
2004-04-23, 00:57:01,VALID,916.398,VALID,0,VALID,100,VALID,-0.0509425,VALID,19.9551,VALID,120,VALID,0.0166903,
2004-04-23, 00:58:01,VALID,916.393,VALID,0,VALID,100,VALID,-0.0509425,VALID,19.978,VALID,120,VALID,0,
2004-04-23, 00:59:01,VALID,916.388,VALID,0,VALID,100,VALID,-0.0509425,VALID,20.0043,VALID,120,VALID,0,
2004-04-23, 01:00:01,VALID,916.37,VALID,0,VALID,100,VALID,-0.0509425,VALID,20.0038,VALID,120,VALID,0,
2004-04-23, 01:01:01,VALID,916.362,VALID,0,VALID,100,VALID,-0.0849042,VALID,19.975,VALID,120,VALID,0,
2004-04-23, 01:02:01,VALID,916.333,VALID,0,VALID,100,VALID,0,VALID,19.9556,VALID,120,VALID,0.000710227,
2004-04-23, 01:03:01,VALID,916.315,VALID,0,VALID,100,VALID,0.0169808,VALID,19.9156,VALID,120,VALID,0.321801,
2004-04-23, 01:04:01,VALID,916.289,VALID,0,VALID,100,VALID,0.0169808,VALID,19.8761,VALID,120,VALID,0.4,
2004-04-23, 01:05:01,VALID,916.26,VALID,0,VALID,100,VALID,0.0509425,VALID,19.8667,VALID,120,VALID,0.386133,
2004-04-23, 01:06:01,VALID,916.242,VALID,0,VALID,100,VALID,0,VALID,19.8734,VALID,120,VALID,0.222266,
2004-04-23, 01:07:01,VALID,916.222,VALID,0,VALID,100,VALID,0.0679233,VALID,19.8895,VALID,120,VALID,0,
2004-04-23, 01:08:01,VALID,916.2,VALID,0,VALID,100,VALID,0.0169808,VALID,19.8957,VALID,120,VALID,0,
2004-04-23, 01:09:01,VALID,916.174,VALID,0,VALID,100,VALID,0.0509425,VALID,19.9086,VALID,120,VALID,0,
2004-04-23, 01:10:01,VALID,916.154,VALID,0,VALID,100,VALID,0.0169808,VALID,19.8995,VALID,120,VALID,0.036258,
2004-04-23, 01:11:01,VALID,916.131,VALID,0,VALID,100,VALID,0.0169808,VALID,19.8865,VALID,120,VALID,0.00507812,
2004-04-23, 01:12:01,VALID,916.121,VALID,0,VALID,100,VALID,0.0339617,VALID,19.8995,VALID,120,VALID,0,
2004-04-23, 01:13:01,VALID,916.094,VALID,0,VALID,100,VALID,0.0169808,VALID,19.8997,VALID,120,VALID,0.257813,
2004-04-23, 01:14:01,VALID,916.073,VALID,0,VALID,100,VALID,-0.0169808,VALID,19.8965,VALID,120,VALID,0.458789,
2004-04-23, 01:15:01,VALID,916.071,VALID,0,VALID,100,VALID,0.0169808,VALID,19.8898,VALID,96,VALID,0.561612,
2004-04-23, 01:16:01,VALID,916.068,VALID,0,VALID,100,VALID,0.0509425,VALID,19.8605,VALID,68,VALID,0.551736,
2004-04-23, 01:17:01,VALID,916.052,VALID,0,VALID,100,VALID,0.0509425,VALID,19.8446,VALID,66,VALID,0.514881,
2004-04-23, 01:18:01,VALID,916.06,VALID,0,VALID,100,VALID,0.0339617,VALID,19.8058,VALID,66,VALID,0.517857,
2004-04-23, 01:19:01,VALID,916.049,VALID,0,VALID,100,VALID,0.0339617,VALID,19.8023,VALID,66,VALID,0.574396,
2004-04-23, 01:20:01,VALID,916.052,VALID,0,VALID,100,VALID,0,VALID,19.7959,VALID,66,VALID,0.556895,
2004-04-23, 01:21:01,VALID,916.043,VALID,0,VALID,100,VALID,0.0169808,VALID,19.7797,VALID,66,VALID,0.50705,
2004-04-23, 01:22:01,VALID,916.035,VALID,0,VALID,100,VALID,0.0679233,VALID,19.7671,VALID,68,VALID,0.461119,
2004-04-23, 01:23:01,VALID,916.006,VALID,0,VALID,100,VALID,0.0849042,VALID,19.7375,VALID,82,VALID,0.656808,
2004-04-23, 01:24:01,VALID,915.986,VALID,0,VALID,100,VALID,0.0509425,VALID,19.7313,VALID,108,VALID,0.896257,
2004-04-23, 01:25:01,VALID,915.968,VALID,0,VALID,100,VALID,0.0509425,VALID,19.7184,VALID,135,VALID,1.17153,
2004-04-23, 01:26:01,VALID,915.948,VALID,0,VALID,100,VALID,0.0169808,VALID,19.7151,VALID,136,VALID,1.09446,
2004-04-23, 01:27:01,VALID,915.943,VALID,0,VALID,100,VALID,0.0509425,VALID,19.7146,VALID,131,VALID,1.25038,
2004-04-23, 01:28:01,VALID,915.928,VALID,0,VALID,100,VALID,0.0339617,VALID,19.7253,VALID,157,VALID,1.16484,
2004-04-23, 01:29:00,VALID,915.937,VALID,0,VALID,100,VALID,0.0169808,VALID,19.7246,VALID,159,VALID,0.712462,
2004-04-23, 01:30:00,VALID,915.939,VALID,0,VALID,100,VALID,0.0339617,VALID,19.7256,VALID,145,VALID,1.08825,
2004-04-23, 01:31:00,VALID,915.955,VALID,0,VALID,100,VALID,0.0169808,VALID,19.7281,VALID,130,VALID,0.652716,
2004-04-23, 01:32:00,VALID,915.966,VALID,0,VALID,100,VALID,0.0339617,VALID,19.7248,VALID,127,VALID,1.11226,
2004-04-23, 01:33:00,VALID,915.994,VALID,0,VALID,100,VALID,0.0169808,VALID,19.7084,VALID,125,VALID,1.11293,
2004-04-23, 01:34:00,VALID,916.008,VALID,0,VALID,100,VALID,0.0849042,VALID,19.699,VALID,118,VALID,1.26634,
2004-04-23, 01:35:00,VALID,916.006,VALID,0,VALID,100,VALID,0.0679233,VALID,19.6955,VALID,114,VALID,0.686435,
2004-04-23, 01:36:00,VALID,916.012,VALID,0,VALID,100,VALID,0.0339617,VALID,19.7025,VALID,119,VALID,0.840588,
2004-04-23, 01:37:00,VALID,915.995,VALID,0,VALID,100,VALID,0.0509425,VALID,19.7022,VALID,139,VALID,0.754383,
2004-04-23, 01:38:00,VALID,915.976,VALID,0,VALID,100,VALID,0.0509425,VALID,19.7186,VALID,128,VALID,0.50332,
2004-04-23, 01:39:00,VALID,915.954,VALID,0,VALID,100,VALID,0.0169808,VALID,19.7253,VALID,146,VALID,0.636719,
2004-04-23, 01:40:00,VALID,915.946,VALID,0,VALID,100,VALID,0.0849042,VALID,19.7253,VALID,151,VALID,0.399368,
2004-04-23, 01:41:00,VALID,915.943,VALID,0,VALID,100,VALID,0.0509425,VALID,19.7151,VALID,151,VALID,0.300305,
2004-04-23, 01:42:00,VALID,915.931,VALID,0,VALID,100,VALID,0.0339617,VALID,19.7052,VALID,151,VALID,0.191497,
2004-04-23, 01:43:00,VALID,915.931,VALID,0,VALID,100,VALID,0.0169808,VALID,19.7151,VALID,151,VALID,0.0635901,
2004-04-23, 01:44:00,VALID,915.91,VALID,0,VALID,100,VALID,0.0509425,VALID,19.7181,VALID,150,VALID,0.202009,
2004-04-23, 01:45:00,VALID,915.913,VALID,0,VALID,100,VALID,0.0509425,VALID,19.7146,VALID,149,VALID,0.366776,
2004-04-23, 01:46:00,VALID,915.905,VALID,0,VALID,100,VALID,0.0339617,VALID,19.7283,VALID,114,VALID,0.252858,
2004-04-23, 01:47:00,VALID,915.889,VALID,0,VALID,100,VALID,0.0169808,VALID,19.7186,VALID,109,VALID,0.131214,
2004-04-23, 01:48:00,VALID,915.879,VALID,0,VALID,100,VALID,-0.0339617,VALID,19.7005,VALID,109,VALID,0.015625,
2004-04-23, 01:49:00,VALID,915.864,VALID,0,VALID,100,VALID,-0.0679233,VALID,19.691,VALID,109,VALID,0.00218023,
2004-04-23, 01:50:00,VALID,915.845,VALID,0,VALID,100,VALID,-0.0509425,VALID,19.6908,VALID,109,VALID,0,
2004-04-23, 01:51:00,VALID,915.813,VALID,0,VALID,100,VALID,-0.0339617,VALID,19.6876,VALID,109,VALID,0,
2004-04-23, 01:52:00,VALID,915.792,VALID,0,VALID,100,VALID,-0.0849042,VALID,19.6881,VALID,109,VALID,0,
2004-04-23, 01:53:00,VALID,915.786,VALID,0,VALID,100,VALID,-0.0509425,VALID,19.6846,VALID,91,VALID,0.234003,
2004-04-23, 01:54:00,VALID,915.776,VALID,0,VALID,100,VALID,-0.0509425,VALID,19.6873,VALID,48,VALID,0.355469,
2004-04-23, 01:55:00,VALID,915.766,VALID,0,VALID,100,VALID,-0.0339617,VALID,19.691,VALID,37,VALID,0.496548,
2004-04-23, 01:56:00,VALID,915.764,VALID,0,VALID,100,VALID,-0.0339617,VALID,19.6781,VALID,31,VALID,0.527521,
2004-04-23, 01:57:00,VALID,915.742,VALID,0,VALID,100,VALID,-0.0509425,VALID,19.6746,VALID,31,VALID,0.355283,
2004-04-23, 01:58:00,VALID,915.729,VALID,0,VALID,100,VALID,-0.0849042,VALID,19.6749,VALID,31,VALID,0.242551,
2004-04-23, 01:59:00,VALID,915.715,VALID,0,VALID,100,VALID,-0.0509425,VALID,19.6746,VALID,31,VALID,0.034375,
2004-04-23, 02:00:00,VALID,915.719,VALID,0,VALID,100,VALID,-0.0509425,VALID,19.6811,VALID,31,VALID,0,
2004-04-23, 02:01:00,VALID,915.711,VALID,0,VALID,100,VALID,-0.0679233,VALID,19.7002,VALID,31,VALID,0.000887784,
2004-04-23, 02:02:00,VALID,915.706,VALID,0,VALID,100,VALID,-0.0509425,VALID,19.7268,VALID,31,VALID,0,
2004-04-23, 02:03:00,VALID,915.693,VALID,0,VALID,100,VALID,-0.0339617,VALID,19.7298,VALID,31,VALID,0,
2004-04-23, 02:04:00,VALID,915.674,VALID,0,VALID,100,VALID,-0.0849042,VALID,19.7159,VALID,31,VALID,0.0649771,
2004-04-23, 02:05:00,VALID,915.669,VALID,0,VALID,100,VALID,-0.0509425,VALID,19.7333,VALID,31,VALID,0.240916,
2004-04-23, 02:06:00,VALID,915.656,VALID,0,VALID,100,VALID,-0.0849042,VALID,19.7204,VALID,31,VALID,0.292436,
2004-04-23, 02:07:00,VALID,915.636,VALID,0,VALID,100,VALID,-0.101885,VALID,19.7134,VALID,31,VALID,0.440358,
2004-04-23, 02:08:00,VALID,915.632,VALID,0,VALID,100,VALID,-0.0849042,VALID,19.704,VALID,31,VALID,0.277616,
2004-04-23, 02:09:00,VALID,915.611,VALID,0,VALID,100,VALID,-0.0679233,VALID,19.6975,VALID,31,VALID,0.224568,
2004-04-23, 02:10:00,VALID,915.601,VALID,0,VALID,100,VALID,-0.0509425,VALID,19.7002,VALID,31,VALID,0.429306,
2004-04-23, 02:11:00,VALID,915.57,VALID,0,VALID,100,VALID,-0.0339617,VALID,19.6938,VALID,31,VALID,0.47603,
2004-04-23, 02:12:00,VALID,915.537,VALID,0,VALID,100,VALID,-0.0339617,VALID,19.6908,VALID,31,VALID,0.552734,
2004-04-23, 02:13:00,VALID,915.509,VALID,0,VALID,100,VALID,-0.0679233,VALID,19.7037,VALID,31,VALID,0.619851,
2004-04-23, 02:14:00,VALID,915.494,VALID,0,VALID,100,VALID,-0.0509425,VALID,19.7007,VALID,31,VALID,0.670603,
2004-04-23, 02:15:00,VALID,915.46,VALID,0,VALID,100,VALID,-0.0509425,VALID,19.6583,VALID,31,VALID,0.664634,
2004-04-23, 02:16:00,VALID,915.432,VALID,0,VALID,100,VALID,-0.0509425,VALID,19.6742,VALID,31,VALID,0.643288,
2004-04-23, 02:17:00,VALID,915.403,VALID,0,VALID,100,VALID,-0.0849042,VALID,19.6545,VALID,28,VALID,0.726223,
2004-04-23, 02:18:00,VALID,915.377,VALID,0,VALID,100,VALID,-0.0169808,VALID,19.6585,VALID,27,VALID,0.799543,
2004-04-23, 02:19:00,VALID,915.348,VALID,0,VALID,100,VALID,-0.0509425,VALID,19.6515,VALID,27,VALID,0.743304,
2004-04-23, 02:20:00,VALID,915.317,VALID,0,VALID,100,VALID,-0.0169808,VALID,19.6421,VALID,27,VALID,0.78811,
2004-04-23, 02:21:00,VALID,915.286,VALID,0,VALID,100,VALID,-0.0509425,VALID,19.6491,VALID,27,VALID,0.693403,
2004-04-23, 02:22:00,VALID,915.264,VALID,0,VALID,100,VALID,-0.0679233,VALID,19.6617,VALID,27,VALID,0.541548,
2004-04-23, 02:23:00,VALID,915.259,VALID,0,VALID,100,VALID,-0.0849042,VALID,19.6848,VALID,27,VALID,0.446701,
2004-04-23, 02:24:00,VALID,915.239,VALID,0,VALID,100,VALID,-0.0679233,VALID,19.6776,VALID,27,VALID,0.348586,
2004-04-23, 02:25:00,VALID,915.219,VALID,0,VALID,100,VALID,-0.0849042,VALID,19.6742,VALID,27,VALID,0.310865,
2004-04-23, 02:26:00,VALID,915.206,VALID,0,VALID,100,VALID,-0.0509425,VALID,19.691,VALID,27,VALID,0.178267,
2004-04-23, 02:27:00,VALID,915.174,VALID,0,VALID,100,VALID,-0.0849042,VALID,19.6878,VALID,27,VALID,0.297805,
2004-04-23, 02:28:00,VALID,915.143,VALID,0,VALID,100,VALID,-0.0849042,VALID,19.7007,VALID,27,VALID,0.268403,
2004-04-23, 02:29:00,VALID,915.119,VALID,0,VALID,100,VALID,-0.0849042,VALID,19.6746,VALID,27,VALID,0.2625,
2004-04-23, 02:30:00,VALID,915.089,VALID,0,VALID,100,VALID,-0.0679233,VALID,19.6779,VALID,27,VALID,0.0947266,
2004-04-23, 02:31:00,VALID,915.074,VALID,0,VALID,100,VALID,-0.0679233,VALID,19.6816,VALID,27,VALID,0,
2004-04-23, 02:32:00,VALID,915.048,VALID,0,VALID,100,VALID,-0.101885,VALID,19.6908,VALID,27,VALID,0,
2004-04-23, 02:33:00,VALID,915.022,VALID,0,VALID,100,VALID,0.0339617,VALID,19.6707,VALID,27,VALID,0,
2004-04-23, 02:34:00,VALID,915.008,VALID,0,VALID,100,VALID,0,VALID,19.6411,VALID,27,VALID,0,
2004-04-23, 02:35:00,VALID,914.99,VALID,0,VALID,100,VALID,0.0169808,VALID,19.6217,VALID,27,VALID,0,
2004-04-23, 02:36:00,VALID,914.987,VALID,0,VALID,100,VALID,0.0339617,VALID,19.6021,VALID,27,VALID,0,
2004-04-23, 02:37:00,VALID,914.978,VALID,0,VALID,100,VALID,0.0169808,VALID,19.6056,VALID,27,VALID,0,
2004-04-23, 02:38:00,VALID,914.955,VALID,0,VALID,100,VALID,0,VALID,19.6121,VALID,27,VALID,0,
2004-04-23, 02:39:00,VALID,914.951,VALID,0,VALID,100,VALID,0.0169808,VALID,19.6121,VALID,27,VALID,0.415799,
2004-04-23, 02:40:00,VALID,914.937,VALID,0,VALID,100,VALID,0.0339617,VALID,19.615,VALID,20,VALID,0.485828,
2004-04-23, 02:41:00,VALID,914.919,VALID,0,VALID,100,VALID,0.0169808,VALID,19.6282,VALID,11,VALID,0.491279,
2004-04-23, 02:42:00,VALID,914.922,VALID,0,VALID,100,VALID,0.0509425,VALID,19.6674,VALID,6,VALID,0.147675,
2004-04-23, 02:43:00,VALID,914.904,VALID,0,VALID,100,VALID,0.0339617,VALID,19.7022,VALID,6,VALID,0.0103561,
2004-04-23, 02:44:00,VALID,914.897,VALID,0,VALID,100,VALID,0.0509425,VALID,19.7122,VALID,6,VALID,0,
2004-04-23, 02:45:00,VALID,914.892,VALID,0,VALID,100,VALID,0.0339617,VALID,19.7022,VALID,6,VALID,0.117932,
2004-04-23, 02:46:00,VALID,914.89,VALID,0,VALID,100,VALID,0.0169808,VALID,19.6637,VALID,6,VALID,0.268576,
2004-04-23, 02:47:00,VALID,914.888,VALID,0,VALID,100,VALID,0.0169808,VALID,19.6284,VALID,11,VALID,0.621094,
2004-04-23, 02:48:00,VALID,914.897,VALID,0,VALID,100,VALID,0,VALID,19.6352,VALID,12,VALID,0.606957,
2004-04-23, 02:49:00,VALID,914.907,VALID,0,VALID,100,VALID,0,VALID,19.6222,VALID,12,VALID,0.701882,
2004-04-23, 02:50:00,VALID,914.909,VALID,0,VALID,100,VALID,0.0509425,VALID,19.6155,VALID,12,VALID,0.724888,
2004-04-23, 02:51:00,VALID,914.907,VALID,0,VALID,100,VALID,0.0169808,VALID,19.6058,VALID,11,VALID,0.824558,
2004-04-23, 02:52:00,VALID,914.911,VALID,0,VALID,100,VALID,0,VALID,19.6289,VALID,16,VALID,0.68564,
2004-04-23, 02:53:00,VALID,914.918,VALID,0,VALID,100,VALID,0,VALID,19.6511,VALID,29,VALID,0.836293,
2004-04-23, 02:54:00,VALID,914.906,VALID,0,VALID,100,VALID,0.0339617,VALID,19.6568,VALID,40,VALID,0.819222,
2004-04-23, 02:55:00,VALID,914.908,VALID,0,VALID,100,VALID,0.0169808,VALID,19.7027,VALID,46,VALID,0.579578,
2004-04-23, 02:56:00,VALID,914.909,VALID,0,VALID,100,VALID,0.0169808,VALID,19.7084,VALID,47,VALID,0.46393,
2004-04-23, 02:57:00,VALID,914.91,VALID,0,VALID,100,VALID,0,VALID,19.7258,VALID,57,VALID,0.514353,
2004-04-23, 02:58:00,VALID,914.918,VALID,0,VALID,100,VALID,0,VALID,19.729,VALID,58,VALID,0.374112,
2004-04-23, 02:59:00,VALID,914.92,VALID,0,VALID,100,VALID,-0.0169808,VALID,19.7286,VALID,62,VALID,0.323847,
2004-04-23, 03:00:00,VALID,914.939,VALID,0,VALID,100,VALID,0.0169808,VALID,19.7218,VALID,71,VALID,0.39606,
2004-04-23, 03:01:00,VALID,914.953,VALID,0,VALID,100,VALID,0.0169808,VALID,19.7186,VALID,72,VALID,0.366122,
2004-04-23, 03:02:00,VALID,914.962,VALID,0,VALID,100,VALID,0.0169808,VALID,19.7055,VALID,73,VALID,0.29082,
2004-04-23, 03:03:00,VALID,914.966,VALID,0,VALID,100,VALID,0.0169808,VALID,19.7124,VALID,73,VALID,0.00745739,
2004-04-23, 03:04:00,VALID,914.971,VALID,0,VALID,100,VALID,0.0169808,VALID,19.7089,VALID,73,VALID,0.00839844,
2004-04-23, 03:05:00,VALID,914.991,VALID,0,VALID,100,VALID,0.0339617,VALID,19.7025,VALID,73,VALID,0.115141,
2004-04-23, 03:06:00,VALID,914.98,VALID,0,VALID,100,VALID,0,VALID,19.696,VALID,73,VALID,0.209032,
2004-04-23, 03:07:00,VALID,914.979,VALID,0,VALID,100,VALID,0.0169808,VALID,19.6898,VALID,73,VALID,0.0892857,
2004-04-23, 03:08:00,VALID,914.987,VALID,0,VALID,100,VALID,0.0169808,VALID,19.6801,VALID,73,VALID,0,
2004-04-23, 03:09:00,VALID,914.997,VALID,0,VALID,100,VALID,0,VALID,19.6707,VALID,73,VALID,0,
2004-04-23, 03:10:00,VALID,914.984,VALID,0,VALID,100,VALID,0,VALID,19.658,VALID,73,VALID,0.138139,
2004-04-23, 03:11:00,VALID,914.997,VALID,0,VALID,100,VALID,0,VALID,19.6379,VALID,73,VALID,0.321837,
2004-04-23, 03:12:00,VALID,914.992,VALID,0,VALID,100,VALID,0.0169808,VALID,19.6409,VALID,73,VALID,0.157885,
2004-04-23, 03:13:00,VALID,914.987,VALID,0,VALID,100,VALID,0.0169808,VALID,19.6317,VALID,73,VALID,0.293341,
2004-04-23, 03:14:00,VALID,914.987,VALID,0,VALID,100,VALID,0,VALID,19.6031,VALID,73,VALID,0.331641,
2004-04-23, 03:15:00,VALID,914.99,VALID,0,VALID,100,VALID,0.0169808,VALID,19.5703,VALID,73,VALID,0.35992,
2004-04-23, 03:16:00,VALID,914.988,VALID,0,VALID,100,VALID,0,VALID,19.5606,VALID,73,VALID,0.310937,
2004-04-23, 03:17:00,VALID,914.994,VALID,0,VALID,100,VALID,0,VALID,19.5775,VALID,73,VALID,0.114826,
2004-04-23, 03:18:00,VALID,914.99,VALID,0,VALID,100,VALID,0,VALID,19.5899,VALID,73,VALID,0.161701,
2004-04-23, 03:19:00,VALID,914.988,VALID,0,VALID,100,VALID,0,VALID,19.6029,VALID,73,VALID,0.206845,
2004-04-23, 03:20:00,VALID,914.98,VALID,0,VALID,100,VALID,-0.0169808,VALID,19.6096,VALID,73,VALID,0.219703,
2004-04-23, 03:21:00,VALID,914.983,VALID,0,VALID,100,VALID,0,VALID,19.6029,VALID,73,VALID,0.321429,
2004-04-23, 03:22:00,VALID,914.951,VALID,0,VALID,100,VALID,0,VALID,19.5959,VALID,73,VALID,0.467607,
2004-04-23, 03:23:00,VALID,914.952,VALID,0,VALID,100,VALID,0,VALID,19.5865,VALID,73,VALID,0.47745,
2004-04-23, 03:24:00,VALID,914.935,VALID,0,VALID,100,VALID,0,VALID,19.5899,VALID,73,VALID,0.449609,
2004-04-23, 03:25:00,VALID,914.93,VALID,0,VALID,100,VALID,0,VALID,19.5966,VALID,73,VALID,0.258333,
2004-04-23, 03:26:00,VALID,914.901,VALID,0,VALID,100,VALID,0,VALID,19.5867,VALID,76,VALID,0.345465,
2004-04-23, 03:27:00,VALID,914.896,VALID,0,VALID,100,VALID,0,VALID,19.5703,VALID,87,VALID,0.228237,
2004-04-23, 03:28:00,VALID,914.861,VALID,0,VALID,100,VALID,0,VALID,19.5604,VALID,87,VALID,0.273251,
2004-04-23, 03:29:00,VALID,914.85,VALID,0,VALID,100,VALID,0.0169808,VALID,19.5413,VALID,87,VALID,0.279204,
2004-04-23, 03:30:00,VALID,914.83,VALID,0,VALID,100,VALID,0,VALID,19.5544,VALID,87,VALID,0.164807,
2004-04-23, 03:31:00,VALID,914.829,VALID,0,VALID,100,VALID,0,VALID,19.5639,VALID,87,VALID,0.270952,
2004-04-23, 03:32:00,VALID,914.827,VALID,0,VALID,100,VALID,0,VALID,19.5932,VALID,87,VALID,0.0704985,
2004-04-23, 03:33:00,VALID,914.813,VALID,0,VALID,100,VALID,0.0169808,VALID,19.6123,VALID,87,VALID,0,
2004-04-23, 03:34:00,VALID,914.8,VALID,0,VALID,100,VALID,0.0169808,VALID,19.6317,VALID,87,VALID,0,
2004-04-23, 03:35:00,VALID,914.793,VALID,0,VALID,100,VALID,0,VALID,19.6508,VALID,87,VALID,0,
2004-04-23, 03:36:00,VALID,914.792,VALID,0,VALID,100,VALID,0.0169808,VALID,19.6896,VALID,87,VALID,0,
2004-04-23, 03:37:00,VALID,914.778,VALID,0,VALID,100,VALID,0.0339617,VALID,19.6891,VALID,87,VALID,0,
2004-04-23, 03:38:00,VALID,914.756,VALID,0,VALID,100,VALID,0.0339617,VALID,19.6863,VALID,87,VALID,0,
2004-04-23, 03:39:00,VALID,914.748,VALID,0,VALID,100,VALID,0.0339617,VALID,19.6734,VALID,87,VALID,0.0336682,
2004-04-23, 03:40:00,VALID,914.746,VALID,0,VALID,100,VALID,0.0339617,VALID,19.6707,VALID,87,VALID,0.1379,
2004-04-23, 03:41:00,VALID,914.758,VALID,0,VALID,100,VALID,0.0169808,VALID,19.6707,VALID,87,VALID,0.241655,